    Observer details:
    033 Karl Schwarzschild Observatory, Tautenburg.  Observers C. Hoegner,
        B. Stecklum.  Measurer B. Stecklum.  1.34-m f/3 Schmidt + CCD.
    113 Volkssternwarte Drebach, Schoenbrunn.  Observers G. Lehmann, K. Lehmann.
        0.5-m f/4.6 reflector + CCD.
    246 Klet Observatory-KLENOT.  Observers M. Tichy, J. Ticha.  Measurer M. Tichy.
        1.06-m KLENOT Telescope + CCD.
    585 Kyiv comet station.  Observer A. Baransky.  0.7-m f/4 reflector + CCD.
    703 Catalina Sky Survey.  Observer G. J. Leonard.  Measurers E. J. Christensen,
        D. C. Fuls, A. R. Gibbs, A. D. Grauer, J. A. Johnson, R. A. Kowalski,
        S. M. Larson, G. J. Leonard, R. G. Matheny, R. L. Seaman, F. C. Shelly.
        0.68-m Schmidt + 10K CCD.
    926 Tenagra II Observatory.  Observers M. Schwartz, P. R. Holvorcem.  Measurer
        M. Schwartz.  0.81-m f/7 Ritchey-Chretien + CCD.
    B74 Santa Maria de Montmagastrell.  Observer J. M. Bosch.  0.40-m f/10
        Schmidt-Cassegrain + CCD.
    C47 Nonndorf.  Observer G. Dangl.  0.25-m f/4.8 reflector + CCD.
    G34 Oberfrauendorf.  Observer T. Felber.  0.25-m f/10 Schmidt-Cassegrain + CCD
        + f/6.3 focal reducer.
    G48 Harlingten Research Observatory, Rancho Hildalgo.  Observers C. Harlingten,
        M. Mills.  Measurer M. Mills.  0.40-m f/6.7 Ritchey-Chretien + CCD.
    H01 Magdalena Ridge Observatory, Socorro.  Observers W. H. Ryan, E. V. Ryan.
        Measurer W. H. Ryan.  2.4-m f/8.9 reflector + CCD.
    H06 iTelescope Observatory, Mayhill.  Observer M. Suzuki.  0.43-m f/6.8
        reflector + CCD + f/4.5 focal reducer.
    I52 Steward Observatory, Mt. Lemmon Station.  Observer R. A. Kowalski.
        Measurers E. J. Christensen, D. C. Fuls, A. R. Gibbs, A. D. Grauer,
        J. A. Johnson, R. A. Kowalski, S. M. Larson, G. J. Leonard, R. G. Matheny,
        R. L. Seaman, F. C. Shelly.  1.0-m reflector + CCD.
    K61 Rokycany Observatory.  Observer M. Adamovsky.  0.51-m f/6.8 reflector
        + CCD.
    T05 ATLAS-HKO, Haleakala.  Observers L. Denneau, A. Heinze, H. Weiland,
        J. Tonry.  Measurers L. Denneau, H. Flewelling, A. Heinze, B. Stalder,
        J. Tonry.  0.5-m f/2.0 Schmidt + CCD.
    W88 Slooh.com Chile Observatory, La Dehesa.  Observer W. F. Cashwell.  0.35-m
        f/11 Schmidt-Cassegrain + CCD.
    
    Orbital elements:
    2017 WA14                                                Earth MOID = 0.0006 AU
    Epoch 2017 Sept. 4.0 TT = JDT 2458000.5                 MPC
    M 347.57092              (2000.0)            P               Q
    n   0.33976209     Peri.  112.16653     +0.99161000     +0.12656686
    a   2.0340085      Node   240.57086     -0.12690918     +0.91457164
    e   0.6276791      Incl.    1.72882     -0.02456967     +0.38410877
    P   2.90           H   27.5           G   0.15           U   5
    Residuals in seconds of arc
    171122 703  0.7+  0.1-    171122 K61  0.4-  0.2+    171123 B74  0.2+  0.1-
    171122 703  0.7+  0.1-    171122 K61  0.7+  0.2-    171123 B74  0.2+  0.1+
    171122 703  0.7+  0.2-    171122 G34  0.0   0.6+    171123 B74  0.2+  0.1+
    171122 703  0.8+  0.4+    171122 G34  1.1-  0.9-    171123 033  0.1-  0.1+
    171122 703  1.0+  0.9+    171122 G34  0.4+  1.4-    171123 033  0.1-  0.2-
    171122 H01  0.5+  0.2+    171122 G34  1.1-  0.4+    171123 033  0.0   0.3-
    171122 H01  0.6+  0.0     171122 113  0.9+  0.3-    171123 W88  0.2+  0.5+
    171122 H01  0.5+  0.1+    171122 113  0.4+  0.4+    171123 G48  0.2-  0.3-
    171122 H01  0.6+  0.2+    171122 113  0.2+  0.2-    171123 G48  0.2+  2.6+
    171122 H01  0.5+  0.3+    171122 113  0.3+  0.1+    171123 G48  1.7+  0.9+
    171122 H06  0.5+  0.0     171122 246  0.0   0.0     171123 W88  0.3+  0.7+
    171122 H06  0.7+  0.3+    171122 246  0.1-  0.3-    171123 H01  0.0   0.0
    171122 H06  0.3+  0.3-    171122 246  0.4+  0.5-    171123 H01  0.1-  0.0
    171122 I52  0.3+  0.1+    171122 246  0.3+  0.1-    171123 H01  0.1-  0.0
    171122 I52  0.2+  0.1-    171122 246  0.4+  0.0     171123 H01  0.0   0.0
    171122 I52  0.1+  0.1-    171122 246  0.7+  0.4+    171123 926  0.3-  0.1+
    171122 I52  0.6+  0.3+    171122 246  0.3+  0.0     171123 926  0.2-  0.3-
    171122 H01  0.5+  0.3+    171122 C47  0.3+  0.0     171123 926  0.6-  0.1+
    171122 H01  0.4+  0.2+    171122 C47  0.3+  0.0     171123 246  0.4-  0.7+
    171122 H01  0.3+  0.4+    171122 033  0.5+  0.1+    171123 246  0.1-  0.5-
    171122 T05  0.6+  0.3+    171122 033  0.3+  0.0     171124 246  0.1+  0.7-
    171122 T05  0.1-  1.0-    171122 033  0.3+  0.0     171124 246  0.4-  0.5-
    171122 T05  0.5+  0.4+    171122 C47  0.2+  0.2+    171124 585  0.2+  0.2-
    171122 T05  0.7+  1.0+    171122 C47  0.1+  0.3+    171124 585  0.1+  0.2-
    171122 T05  0.4+  0.1+    171122 C47  0.5+  0.5+    171124 585  0.0   0.2-
    171122 K61  0.8+  0.4-    171122 033  0.3+  0.1+    171124 585  0.0   0.3-
    171122 K61  0.7+  0.1-    171123 033  0.2+  0.5+
    171122 K61  0.7+  0.1-    171123 033  0.5+  0.6+
    
    Ephemeris:
    2017 WA14                a,e,i = 2.03, 0.63, 2                   q = 0.7573
    Date    TT    R. A. (2000) Decl.     Delta      r     Elong.  Phase     V
    2017 10 26    16 28 39.4 -18 27 35   0.2660  0.7944    36.0   132.7    30.1
    ...
    2017 11 10    16 39 07.2 -18 19 39   0.1120  0.8888    23.6   153.6    31.7
    ...
    2017 11 18    16 40 05.2 -17 36 52   0.03588 0.9541    16.0   163.4    32.5
    ...
    2017 11 24    04 40 51.7 +18 36 04   0.02034 1.0074   169.8    10.0    19.7
    2017 11 25    04 40 26.1 +18 02 35   0.02971 1.0165   170.6     9.1    20.5
    2017 11 26    04 40 11.8 +17 45 17   0.03910 1.0257   171.5     8.2    21.1
    ...
    2017 12 02    04 39 36.0 +17 15 34   0.09606 1.0817   175.0     4.5    23.0
    ...
    2017 12 10    04 39 24.5 +17 13 55   0.1749  1.1581   171.4     7.3    24.6
    ...
    2017 12 25    04 41 46.1 +17 36 24   0.3381  1.3028   157.7    16.6    26.6
    
    A. U. Tomatic                (C) Copyright 2017 MPC           M.P.E.C. 2017-W149
    

    Read MPEC 2017-W148 Read MPEC 2017-W150


    MPEC number:

    Enter an MPEC number in one of the following forms:

    • 1997-B01 (the full form)
    • J97B01 (the packed version of the full form)
    • B01 (the abbreviated form)